EOS-6 (OCEANSAT-3)

Last updated on Mon Feb 10 2025 00:02:39 GMT+0000 (Coordinated Universal Time)

1 54361U 22158A 25040.54455067 .00000776 00000+0 22538-3 0 9996 2 54361 98.3500 140.3963 0001475 74.0085 286.1270 14.47008714116597
UTC large
Height (km)
Speed (km/s)
/
Latitude / Longitude
Inclination (degrees)
Orbital Period (minutes)
Azimuth
Elevation
Range (km)
Doppler Factor

Next 0 passes for location: London (51.5072 / 0.1276)

Sorry there are no passes over London.